Weather History for Mullan Pass, ID

Change the Weather History Date:

Saturday, November 10, 2012

  Actual Average (K3TH) Record (K3TH)
Temperature  
Mean Temperature 16 °F -  
Max Temperature 19 °F 42 °F 53 °F (1999)
Min Temperature 12 °F 30 °F 16 °F (2000)
Degree Days  
Heating Degree Days 50    
Moisture  
Dew Point 11 °F    
Average Humidity 80    
Maximum Humidity 86    
Minimum Humidity 73    
Precipitation  
Precipitation 0.02 in - - ()
Sea Level Pressure  
Sea Level Pressure 29.84 in    
Wind  
Wind Speed 4 mph (ENE)    
Max Wind Speed 8 mph    
Max Gust Speed -    
Visibility 3 miles    
Events Snow    
Averages and records for this station are not official NWS values.
T = Trace of Precipitation, MM = Missing Value Source: NWS Daily Summary

Daily Weather History Graph

Daily Weather History Graph

Search for Another Location

Airport:

Trip Planner

Search our weather history database for the weather conditions in past years. The results will help you decide how hot, cold, wet, or windy it might be!

Date:

Astronomy

Nov. 10, 2012 Rise Set
Actual Time 6:40 AM PST 4:11 PM PST
Civil Twilight 6:07 AM PST 4:44 PM PST
Nautical Twilight 5:30 AM PST 5:21 PM PST
Astronomical Twilight 4:54 AM PST 5:57 PM PST
Moon 2:37 AM PST (11/10) 2:12 PM PST (11/10)
Length of Visible Light 10h 37m
Length of Day
9h 31m
Waning Crescent, 13% of the Moon is Illuminated
Nov 10
Waning Crescent
Nov 13
New
Nov 20
First Quarter
Nov 28
Full
Dec 6
Last Quarter

Hourly Weather History & Observations

Time (PST) Temp. Windchill Dew Point Humidity Pressure Visibility Wind Dir Wind Speed Gust Speed Precip Events Conditions
12:09 AM 15.8 °F 10.2 °F 10.4 °F 79% 29.68 in 5.0 mi SE 3.5 mph - 0.00 in Snow Light Snow
12:17 AM 15.8 °F 8.6 °F 10.4 °F 79% 29.68 in 4.0 mi ESE 4.6 mph - 0.00 in Snow Light Snow
12:53 AM 16.0 °F - 10.9 °F 81% 29.85 in 4.0 mi Calm Calm - 0.00 in Snow Light Snow
1:03 AM 15.8 °F 10.2 °F 10.4 °F 79% 29.68 in 3.0 mi Variable 3.5 mph - 0.00 in Snow Light Snow
2:08 AM 15.8 °F 10.2 °F 10.4 °F 79% 29.69 in 4.0 mi ESE 3.5 mph - 0.00 in Snow Light Snow
2:40 AM 15.8 °F 7.2 °F 10.4 °F 79% 29.69 in 2.5 mi ESE 5.8 mph - 0.00 in Snow Light Snow
2:53 AM 15.1 °F 9.4 °F 10.9 °F 84% 29.87 in 3.0 mi SE 3.5 mph - 0.00 in Snow Light Snow
3:21 AM 15.8 °F 5.1 °F 10.4 °F 79% 29.69 in 6.0 mi ESE 8.1 mph - 0.00 in   Haze
3:49 AM 15.8 °F 6.1 °F 10.4 °F 79% 29.69 in 9.0 mi SE 6.9 mph - 0.00 in   Overcast
3:53 AM 15.1 °F 5.2 °F 10.0 °F 80% 29.88 in 9.0 mi ESE 6.9 mph - 0.00 in   Overcast
4:42 AM 14.0 °F 5.1 °F 8.6 °F 79% 29.70 in 9.0 mi ESE 5.8 mph - N/A   Overcast
4:53 AM 14.0 °F 6.5 °F 9.0 °F 80% 29.90 in 7.0 mi Variable 4.6 mph - N/A   Overcast
5:06 AM 14.0 °F 8.2 °F 10.4 °F 86% 29.71 in 5.0 mi Variable 3.5 mph - 0.00 in Snow Light Snow
5:18 AM 14.0 °F - 10.4 °F 86% 29.71 in 4.0 mi Calm Calm - 0.00 in Snow Light Snow
5:53 AM 14.0 °F 6.5 °F 10.0 °F 84% 29.91 in 2.5 mi Variable 4.6 mph - 0.00 in Snow Light Snow
6:37 AM 14.0 °F 5.1 °F 8.6 °F 79% 29.72 in 3.0 mi SE 5.8 mph - 0.00 in Snow Light Snow
6:50 AM 14.0 °F 5.1 °F 8.6 °F 79% 29.72 in 2.5 mi SE 5.8 mph - 0.00 in Snow Light Snow
6:53 AM 14.0 °F 3.9 °F 9.0 °F 80% 29.92 in 2.5 mi SE 6.9 mph - 0.00 in Snow Light Snow
7:39 AM 14.0 °F 6.5 °F 8.6 °F 79% 29.73 in 1.5 mi SE 4.6 mph - 0.00 in Snow Light Snow
7:53 AM 14.0 °F 6.5 °F 9.0 °F 80% 29.93 in 1.5 mi Variable 4.6 mph - 0.00 in Snow Light Snow
8:12 AM 14.0 °F 3.9 °F 8.6 °F 79% 29.73 in 2.0 mi ESE 6.9 mph - 0.00 in Snow Light Snow
8:29 AM 14.0 °F 5.1 °F 8.6 °F 79% 29.74 in 4.0 mi SE 5.8 mph - 0.00 in   Haze
8:44 AM 14.0 °F 5.1 °F 10.4 °F 86% 29.74 in 3.0 mi SE 5.8 mph - 0.00 in Snow Light Snow
8:53 AM 14.0 °F 6.5 °F 9.0 °F 80% 29.95 in 2.5 mi Variable 4.6 mph - 0.00 in Snow Light Snow
9:04 AM 15.8 °F 8.6 °F 10.4 °F 79% 29.74 in 2.0 mi ESE 4.6 mph - 0.00 in Snow Light Snow
9:08 AM 15.8 °F 7.2 °F 10.4 °F 79% 29.74 in 1.8 mi ESE 5.8 mph - 0.00 in Snow Light Snow
9:18 AM 15.8 °F 10.2 °F 10.4 °F 79% 29.75 in 2.0 mi Variable 3.5 mph - 0.00 in Snow Light Snow
9:27 AM 15.8 °F 8.6 °F 10.4 °F 79% 29.75 in 2.0 mi Variable 4.6 mph - 0.00 in Snow Light Snow
9:39 AM 15.8 °F 10.2 °F 10.4 °F 79% 29.75 in 1.8 mi Variable 3.5 mph - 0.00 in Snow Light Snow
9:53 AM 15.1 °F 6.4 °F 10.0 °F 80% 29.96 in 0.8 mi ESE 5.8 mph - 0.00 in Snow Light Snow
10:10 AM 15.8 °F 10.2 °F 8.6 °F 73% 29.76 in 0.2 mi Variable 3.5 mph - 0.01 in Snow Heavy Snow
10:30 AM 15.8 °F 10.2 °F 10.4 °F 79% 29.76 in 0.5 mi Variable 3.5 mph - 0.02 in Snow Snow
10:53 AM 17.1 °F 11.7 °F 10.9 °F 77% 29.95 in 0.5 mi Variable 3.5 mph - 0.02 in Snow Snow
11:03 AM 17.6 °F - 10.4 °F 73% 29.76 in 1.2 mi Calm Calm - 0.00 in Snow Light Snow
11:24 AM 17.6 °F 12.3 °F 12.2 °F 79% 29.76 in 1.0 mi Variable 3.5 mph - 0.00 in Snow Light Snow
11:44 AM 17.6 °F - 12.2 °F 79% 29.76 in 0.5 mi Calm Calm - 0.00 in Snow Snow
11:53 AM 17.1 °F - 12.0 °F 81% 29.96 in 0.2 mi Calm Calm - 0.00 in   Haze
11:57 AM 17.6 °F 12.3 °F 12.2 °F 79% 29.76 in 0.5 mi Variable 3.5 mph - N/A   Haze
12:26 PM 17.6 °F - 12.2 °F 79% 29.77 in 1.0 mi Calm Calm - 0.00 in Snow Light Snow
12:34 PM 17.6 °F 12.3 °F 12.2 °F 79% 29.77 in 0.5 mi Variable 3.5 mph - 0.00 in Snow Snow
12:53 PM 17.1 °F - 12.0 °F 81% 29.97 in 2.0 mi Calm Calm - 0.00 in Snow Light Snow
1:02 PM 17.6 °F - 12.2 °F 79% 29.78 in 3.0 mi Calm Calm - 0.00 in Snow Light Snow
1:12 PM 17.6 °F - 12.2 °F 79% 29.78 in 4.0 mi Calm Calm - 0.00 in Snow Light Snow
1:15 PM 17.6 °F - 12.2 °F 79% 29.78 in 1.5 mi Calm Calm - 0.00 in Snow Light Snow
1:23 PM 17.6 °F - 12.2 °F 79% 29.78 in 1.2 mi Calm Calm - 0.00 in Snow Light Snow
1:25 PM 17.6 °F - 12.2 °F 79% 29.78 in 2.0 mi Calm Calm - 0.00 in Snow Light Snow
1:33 PM 17.6 °F - 12.2 °F 79% 29.78 in 4.0 mi Calm Calm - 0.00 in Snow Light Snow
1:51 PM 17.6 °F - 12.2 °F 79% 29.79 in 2.5 mi Calm Calm - 0.00 in Snow Light Snow
1:52 PM 18.0 °F - 12.0 °F 78% 29.98 in 2.0 mi Calm Calm - 0.00 in Snow Light Snow
2:01 PM 19.4 °F - 12.2 °F 74% 29.79 in 1.2 mi Calm Calm - 0.00 in Snow Light Snow
2:08 PM 19.4 °F 14.3 °F 12.2 °F 74% 29.79 in 1.5 mi NW 3.5 mph - 0.00 in Snow Light Snow
2:18 PM 17.6 °F - 12.2 °F 79% 29.79 in 0.8 mi Calm Calm - 0.00 in Snow Light Snow
2:27 PM 17.6 °F 12.3 °F 12.2 °F 79% 29.80 in 1.2 mi NNW 3.5 mph - 0.00 in Snow Light Snow
2:39 PM 17.6 °F 12.3 °F 12.2 °F 79% 29.80 in 1.8 mi Variable 3.5 mph - 0.00 in Snow Light Snow
2:53 PM 17.1 °F 8.7 °F 12.0 °F 81% 30.01 in 1.0 mi NW 5.8 mph - 0.00 in Snow Light Snow
3:01 PM 17.6 °F 12.3 °F 12.2 °F 79% 29.81 in 0.8 mi Variable 3.5 mph - 0.00 in Snow Light Snow
3:41 PM 17.6 °F 10.7 °F 12.2 °F 79% 29.82 in 1.5 mi NW 4.6 mph - 0.00 in Snow Light Snow
3:53 PM 17.1 °F 10.0 °F 12.0 °F 81% 30.03 in 1.0 mi Variable 4.6 mph - 0.00 in Snow Light Snow
4:08 PM 17.6 °F 12.3 °F 12.2 °F 79% 29.83 in 1.5 mi Variable 3.5 mph - 0.00 in Snow Light Snow
4:17 PM 17.6 °F 9.3 °F 12.2 °F 79% 29.83 in 1.0 mi Variable 5.8 mph - 0.00 in Snow Light Snow
4:26 PM 15.8 °F 7.2 °F 12.2 °F 86% 29.84 in 2.0 mi NNW 5.8 mph - 0.00 in Snow Light Snow
4:53 PM 16.0 °F 8.8 °F 12.0 °F 84% 30.06 in 1.8 mi Variable 4.6 mph - 0.00 in Snow Light Snow
5:03 PM 15.8 °F 10.2 °F 12.2 °F 86% 29.85 in 2.5 mi Variable 3.5 mph - 0.00 in Snow Light Snow
5:16 PM 15.8 °F 8.6 °F 10.4 °F 79% 29.85 in 3.0 mi NNW 4.6 mph - 0.00 in Snow Light Snow
5:53 PM 15.1 °F 7.7 °F 10.0 °F 80% 30.08 in 10.0 mi Variable 4.6 mph - 0.00 in   Overcast
6:15 PM 15.8 °F 8.6 °F 10.4 °F 79% 29.87 in 1.8 mi NW 4.6 mph - 0.00 in Snow Light Snow
6:34 PM 15.8 °F 7.2 °F 10.4 °F 79% 29.87 in 3.0 mi NNW 5.8 mph - 0.00 in Snow Light Snow
6:53 PM 14.0 °F 5.1 °F 9.0 °F 80% 30.10 in 7.0 mi NNW 5.8 mph - 0.00 in   Overcast
7:12 PM 12.2 °F 2.9 °F 8.6 °F 85% 29.87 in 10.0 mi NNW 5.8 mph - N/A   Scattered Clouds
8:04 PM 12.2 °F 4.3 °F 8.6 °F 85% 29.88 in 10.0 mi NW 4.6 mph - N/A   Mostly Cloudy
8:34 PM 14.0 °F 8.2 °F 8.6 °F 79% 29.89 in 2.0 mi NW 3.5 mph - N/A   Haze
8:44 PM 14.0 °F 8.2 °F 8.6 °F 79% 29.89 in 7.0 mi NW 3.5 mph - N/A   Overcast
9:53 PM 12.9 °F 5.2 °F 8.1 °F 81% 30.12 in 7.0 mi NW 4.6 mph - 0.00 in Snow Light Snow
10:53 PM 12.9 °F 5.2 °F 8.1 °F 81% 30.13 in 8.0 mi Variable 4.6 mph - 0.00 in Snow Light Snow
11:13 PM 12.2 °F 4.3 °F 8.6 °F 85% 29.91 in 9.0 mi NNW 4.6 mph - 0.00 in Snow Light Snow
11:27 PM 14.0 °F 8.2 °F 8.6 °F 79% 29.92 in 5.0 mi Variable 3.5 mph - 0.00 in Snow Light Snow
11:35 PM 14.0 °F - 8.6 °F 79% 29.92 in 2.0 mi Calm Calm - 0.00 in Snow Light Snow
11:42 PM 14.0 °F 6.5 °F 10.4 °F 86% 29.92 in 1.5 mi Variable 4.6 mph - 0.00 in Snow Light Snow
11:53 PM 14.0 °F 5.1 °F 9.0 °F 80% 30.13 in 3.0 mi NNW 5.8 mph - 0.00 in Snow Light Snow